JBU1279 KLAS-KLAX

Flight info

Callsign JBU1279
Flight time N/A
Altitude 28000
Route RADYR2 BLAQQ SHTNR ANJLL4
Aircraft A320/M-SDE3FGHIRWY/LB1

Departure

Time 2026-05-04 20:31
Airport Harry Reid International Airport (KLAS)

Arrival

Time N/A
Airport Los Angeles International Airport (KLAX)
Time Latitude Longitude Altitude Speed Heading
2026-05-04 20:10 36.08112 -115.13712 2120 ft 0 kts 63°
2026-05-04 20:22 36.08103 -115.13737 2093 ft 4 kts 63°
2026-05-04 20:22 36.08093 -115.13761 2093 ft 4 kts 49°
2026-05-04 20:22 36.08073 -115.13773 2093 ft 4 kts 355°
2026-05-04 20:22 36.08052 -115.13771 2093 ft 3 kts 360°
2026-05-04 20:23 36.08027 -115.13778 2093 ft 4 kts 39°
2026-05-04 20:23 36.08010 -115.13797 2093 ft 4 kts 45°
2026-05-04 20:23 36.08001 -115.13810 2093 ft 0 kts 45°
2026-05-04 20:24 36.08000 -115.13810 2093 ft 0 kts 45°
2026-05-04 20:25 36.08001 -115.13810 2093 ft 0 kts 45°
2026-05-04 20:25 36.08000 -115.13810 2093 ft 0 kts 45°
2026-05-04 20:26 36.08001 -115.13809 2093 ft 1 kts 45°
2026-05-04 20:26 36.08010 -115.13797 2093 ft 4 kts 54°
2026-05-04 20:26 36.08014 -115.13748 2093 ft 7 kts 100°
2026-05-04 20:26 36.07977 -115.13693 2092 ft 10 kts 135°
2026-05-04 20:27 36.07924 -115.13627 2092 ft 12 kts 135°
2026-05-04 20:27 36.07859 -115.13548 2092 ft 14 kts 135°
2026-05-04 20:27 36.07828 -115.13428 2090 ft 17 kts 90°
2026-05-04 20:27 36.07828 -115.13262 2087 ft 21 kts 90°
2026-05-04 20:28 36.07828 -115.13067 2081 ft 26 kts 90°
2026-05-04 20:28 36.07828 -115.12832 2071 ft 25 kts 90°
2026-05-04 20:28 36.07829 -115.12641 2063 ft 22 kts 90°
2026-05-04 20:28 36.07829 -115.12431 2057 ft 26 kts 90°
2026-05-04 20:29 36.07818 -115.12255 2053 ft 16 kts 121°
2026-05-04 20:29 36.07759 -115.12162 2050 ft 10 kts 129°
2026-05-04 20:29 36.07687 -115.12123 2048 ft 13 kts 181°
2026-05-04 20:29 36.07643 -115.12177 2049 ft 10 kts 264°
2026-05-04 20:30 36.07643 -115.12191 2049 ft 0 kts 269°
2026-05-04 20:30 36.07641 -115.12346 2053 ft 57 kts 269°
2026-05-04 20:30 36.07645 -115.13181 2085 ft 132 kts 271°
2026-05-04 20:31 36.07626 -115.14594 2338 ft 169 kts 263°
2026-05-04 20:31 36.07637 -115.16017 3425 ft 163 kts 265°
2026-05-04 20:31 36.07637 -115.17499 3749 ft 184 kts 265°
2026-05-04 20:31 36.07617 -115.19174 4107 ft 207 kts 265°
2026-05-04 20:32 36.07569 -115.21075 4474 ft 230 kts 260°
2026-05-04 20:32 36.07318 -115.23025 5393 ft 232 kts 257°
2026-05-04 20:32 36.06885 -115.24958 6264 ft 234 kts 240°
2026-05-04 20:32 36.05811 -115.26470 6979 ft 244 kts 211°
2026-05-04 20:33 36.04169 -115.27217 7599 ft 258 kts 195°
2026-05-04 20:33 36.02430 -115.27830 7938 ft 261 kts 199°
2026-05-04 20:33 36.01077 -115.28413 8025 ft 261 kts 200°
2026-05-04 20:33 35.99884 -115.28967 8042 ft 261 kts 201°
2026-05-04 20:34 35.98133 -115.29590 8156 ft 266 kts 193°
2026-05-04 20:34 35.96318 -115.30074 9128 ft 266 kts 192°
2026-05-04 20:34 35.94508 -115.30539 10111 ft 266 kts 192°
2026-05-04 20:34 35.92632 -115.31013 10545 ft 286 kts 192°
2026-05-04 20:35 36.08110 -115.13717 10602 ft 11 kts 64°